[[{"header":{"parameterUnit":"m.s-1","parameterCategory":1,"la1":30.2991,"la2":30.254,"lo1":-89.0895,"lo2":-89.0444,"dy":0.0017,"dx":0.0017,"nx":28,"ny":28,"refTime":"2025-03-03T03:00:00:Z","depth":0,"parameterNumber":2,"parameterNumberName":"U-component_of_WINDS"},"data":[0,0,0,0,0,0,0,0,0,0,0,0,0,0,0,0,0,0,0,0,0,0,0,0,0,0,0,0,0,0,0,0,0,0,0,0,0,0,0,0,0,0,0,0,0,0,0,0,0,0,0,0,0,0,0,0,0,0,-5.5527,-5.5529,0,-5.5651,-5.5652,-5.5654,-5.5611,-5.5608,-5.5605,-5.5603,-5.573,-5.5735,-5.5741,0,0,0,0,0,0,0,0,0,0,0,0,0,-5.5257,-5.5262,-5.5527,-5.5529,-5.553,-5.5651,-5.5652,-5.5654,-5.5611,-5.5608,-5.5605,-5.5602,-5.5728,-5.5735,-5.5742,0,0,0,0,0,0,0,0,0,0,0,0,0,-5.5377,-5.5263,-5.5527,-5.5523,-5.5524,-5.565,-5.5652,-5.5654,-5.5612,-5.5608,-5.5604,-5.56,-5.5725,-5.5734,-5.5743,-5.5879,0,0,-5.577,-5.5774,0,0,0,0,0,0,0,0,-5.537,-5.5386,-5.5522,-5.5524,-5.5525,-5.5611,-5.5603,-5.573,-5.5613,-5.5579,-5.5603,-5.5598,-5.5694,-5.5705,-5.5737,-5.5885,-5.5891,-5.5771,-5.5776,-5.578,-5.5782,0,0,0,0,0,0,0,-5.5362,-5.5381,-5.5576,-5.5524,-5.5526,-5.5517,-5.5529,-5.5627,-5.5658,-5.5581,-5.5579,-5.5594,-5.5693,-5.5728,-5.574,-5.5892,-5.577,-5.5778,-5.5784,-5.5787,-5.6161,-5.6165,0,0,0,0,0,0,-5.5352,-5.5374,-5.5572,-5.558,-5.5436,-5.5525,-5.5539,-5.5588,-5.5656,-5.5663,-5.5597,-5.5591,-5.5715,-5.5729,-5.5744,-5.5908,-5.578,-5.5788,-5.5793,-5.6156,-5.6162,-5.6167,0,0,0,0,0,0,-5.5347,-5.537,-5.5567,-5.5476,-5.5501,-5.5534,-5.5589,-5.5592,-5.5627,-5.5668,-5.5674,-5.5627,-5.5713,-5.5731,-5.5846,-5.5912,-5.5792,-5.58,-5.6151,-5.6158,-5.6164,-5.6238,0,0,0,0,0,0,-5.5339,-5.5369,-5.542,-5.5478,-5.5506,-5.5667,-5.5593,-5.5598,-5.5642,-5.5636,-5.5698,-5.5704,-5.5711,-5.5833,-5.5855,-5.5922,-5.5807,-5.6145,-5.6154,-5.6162,-5.6229,-5.6246,-5.6261,0,0,0,0,0,-5.533,-5.5435,-5.5423,-5.5447,-5.557,-5.567,-5.5686,-5.5692,-5.5648,-5.57,-5.5727,-5.5702,-5.5902,-5.5845,-5.587,-5.594,-5.6141,-5.6151,-5.6161,-5.6222,-5.6243,-5.626,0,0,0,0,0,0,-5.5383,-5.5443,-5.5429,-5.5557,-5.5609,-5.5663,-5.5728,-5.5713,-5.5779,-5.577,-5.5775,-5.5789,-5.5907,-5.5936,-5.5871,-5.6077,-5.6015,-5.6031,-5.6053,-5.6073,-5.6088,-5.6077,-5.5814,0,0,0,0,0,-5.541,-5.5486,-5.5534,-5.5642,-5.5669,-5.5695,-5.5739,-5.5739,-5.5793,-5.5815,-5.585,-5.5904,-5.5979,-5.6028,-5.6099,-5.6235,-5.6248,-5.6296,-5.6311,-5.6324,-5.6336,-5.6411,-5.6433,-5.6201,-5.6201,-5.6201,0,0,-5.5466,-5.5508,-5.5555,-5.5654,-5.5694,-5.5773,-5.5713,-5.5799,-5.5858,-5.5828,-5.5938,-5.5967,-5.6027,-5.6153,-5.621,-5.618,-5.6404,-5.6337,-5.6347,-5.6352,-5.6424,-5.6446,-5.6465,-5.6208,-5.6207,-5.6205,0,0,-5.5607,-5.5647,-5.5741,-5.5784,-5.5846,-5.5863,-5.5887,-5.5944,-5.5962,-5.6073,-5.6052,-5.6123,-5.6252,-5.6297,-5.6336,-5.6499,-5.6478,-5.6523,-5.6602,-5.6675,-5.6693,-5.6709,-5.6766,-5.6787,-5.6536,-5.6536,-5.6536,0,-5.5668,-5.5785,-5.5792,-5.588,-5.5924,-5.5903,-5.5999,-5.604,-5.6123,-5.6154,-5.612,-5.6283,-5.6322,-5.6458,-5.6498,-5.6532,-5.6558,-5.6513,-5.669,-5.6706,-5.6721,-5.6776,-5.6798,-5.6541,-5.654,-5.654,-5.6539,0,-5.5857,-5.594,-5.6009,-5.6089,-5.6142,-5.6234,-5.6255,-5.6308,-5.6306,-5.6327,-5.6441,-5.6489,-5.6569,-5.6603,-5.66,-5.674,-5.6719,-5.6688,-5.6625,-5.6748,-5.6799,-5.682,-5.6547,-5.6546,-5.6544,-5.6543,0,0,-5.6031,-5.6117,-5.6142,-5.6179,-5.6249,-5.6312,-5.6405,-5.6484,-5.6529,-5.6589,-5.6666,-5.6778,-5.675,-5.6795,-5.6799,-5.6863,-5.6988,-5.6824,-5.6825,-5.6851,-5.7144,-5.7165,-5.7189,-5.6977,-5.6981,-5.6984,-5.7139,0,-5.6176,-5.6337,-5.6347,-5.6493,-5.6569,-5.6552,-5.6632,-5.6684,-5.6708,-5.6777,-5.6803,-5.6882,-5.684,-5.6867,-5.693,-5.696,-5.7047,-5.6949,-5.7048,-5.7051,-5.703,-5.7216,-5.7238,-5.7381,-5.7159,-5.7162,-5.7165,0,-5.6366,-5.6432,-5.6585,-5.6645,-5.6678,-5.675,-5.6824,-5.6891,-5.6951,-5.6963,-5.7016,-5.7011,-5.7107,-5.7044,-5.7176,-5.7109,-5.7151,-5.7173,-5.7178,-5.7185,-5.7113,-5.7226,-5.7427,-5.7448,-5.7197,-5.7194,-5.7192,0,-5.6475,-5.6603,-5.6711,-5.6744,-5.6817,-5.6868,-5.6901,-5.6957,-5.7005,-5.7072,-5.7103,-5.718,-5.7221,-5.7282,-5.7298,-5.7251,-5.743,-5.7369,-5.7443,-5.7443,-5.7478,-5.7475,-5.7686,-5.751,-5.751,-5.751,-5.7509,0,-5.6635,-5.6729,-5.6761,-5.6827,-5.6933,-5.6946,-5.705,-5.708,-5.7131,-5.7203,-5.7195,-5.7263,-5.7282,-5.7355,-5.737,-5.7477,-5.7496,-5.7509,-5.7511,-5.7508,-5.7506,-5.7533,-5.7522,-5.7515,-5.7514,-5.7513,-5.7512,0,-5.6772,-5.6798,-5.6915,-5.6976,-5.6994,-5.7069,-5.7122,-5.7186,-5.721,-5.7302,-5.7325,-5.7363,-5.7448,-5.7472,-5.7574,-5.7584,-5.7709,-5.7704,-5.7688,-5.7688,-5.776,-5.7752,-5.7993,-5.8025,-5.7831,-5.7833,-5.7834,0,-5.6871,-5.6943,-5.7013,-5.7061,-5.7096,-5.7174,-5.7223,-5.724,-5.7292,-5.7368,-5.7423,-5.7508,-5.7575,-5.7713,-5.7749,-5.7828,-5.7823,-5.7903,-5.7834,-5.783,-5.7822,-5.7816,-5.7823,-5.7914,-5.7916,-5.7918,-5.7919,0,-5.7042,-5.7052,-5.7123,-5.72,-5.726,-5.7321,-5.738,-5.742,-5.7446,-5.7505,-5.7593,-5.7646,-5.7751,-5.7835,-5.7915,-5.795,-5.7939,-5.7941,-5.7962,-5.7958,-5.7945,-5.7951,-5.7721,-5.7934,-5.7933,-5.7932,-5.7931,-5.793,-5.7162,-5.7225,-5.7285,-5.7365,-5.7412,-5.7468,-5.7532,-5.7565,-5.7638,-5.7724,-5.7731,-5.7826,-5.7887,-5.7993,-5.8034,-5.8108,-5.8085,-5.8116,-5.8123,-5.813,-5.8135,-5.7937,-5.8124,-5.8123,-5.8123,-5.8122,-5.8122,0,-5.733,-5.7369,-5.7443,-5.7526,-5.759,-5.7577,-5.7642,-5.7696,-5.778,-5.7837,-5.7905,-5.8007,-5.8089,-5.8134,-5.8216,-5.8268,-5.8265,-5.8289,-5.8283,-5.8292,-5.8152,-5.8124,-5.829,-5.829,-5.8289,-5.8289,-5.8289,-5.8289,-5.7426,-5.7532,-5.755,-5.7681,-5.7719,-5.7811,-5.785,-5.7902,-5.7949,-5.8062,-5.8131,-5.816,-5.8213,-5.83,-5.8375,-5.8387,-5.8416,-5.8443,-5.8451,-5.8319,-5.8301,-5.8285,-5.8259,-5.845,-5.845,-5.8584,-5.8585,-5.8586]},{"header":{"parameterUnit":"m.s-1","parameterCategory":1,"la1":30.2991,"la2":30.254,"lo1":-89.0895,"lo2":-89.0444,"dy":0.0017,"dx":0.0017,"nx":28,"ny":28,"refTime":"2025-03-03T03:00:00:Z","depth":0,"parameterNumber":3,"parameterNumberName":"V-component_of_WINDS"},"data":[0,0,0,0,0,0,0,0,0,0,0,0,0,0,0,0,0,0,0,0,0,0,0,0,0,0,0,0,0,0,0,0,0,0,0,0,0,0,0,0,0,0,0,0,0,0,0,0,0,0,0,0,0,0,0,0,0,0,1.9842,1.9843,0,1.995,1.9952,1.9953,2.0006,2.0006,2.0006,2.0006,2.0115,2.0118,2.0121,0,0,0,0,0,0,0,0,0,0,0,0,0,1.9683,1.9686,1.9842,1.9844,1.9845,1.995,1.9952,1.9953,2.0006,2.0006,2.0006,2.0006,2.0114,2.0118,2.0121,0,0,0,0,0,0,0,0,0,0,0,0,0,1.9768,1.9687,1.9842,1.9884,1.9889,1.995,1.9952,1.9953,2.0006,2.0006,2.0006,2.0006,2.0113,2.0117,2.0122,2.0149,0,0,2.0135,2.0137,0,0,0,0,0,0,0,0,1.9763,1.9773,1.9876,1.9881,1.9887,1.9964,1.9936,2.0019,2.0006,1.9961,2.0006,2.0005,2.0065,2.0073,2.0094,2.0154,2.0159,2.0135,2.0138,2.014,2.0141,0,0,0,0,0,0,0,1.9757,1.9769,1.9885,1.9878,1.9884,1.9898,1.991,1.9952,2.0012,1.9965,1.9969,1.9981,2.0068,2.0089,2.0097,2.016,2.0135,2.0139,2.0142,2.0144,2.0253,2.0253,0,0,0,0,0,0,1.9744,1.9764,1.9882,1.9888,1.9823,1.9901,1.9914,1.9939,2.0011,2.0022,1.9981,1.9983,2.0082,2.0091,2.0101,2.014,2.014,2.0144,2.0147,2.0253,2.0253,2.0253,0,0,0,0,0,0,1.974,1.9754,1.9877,1.9827,1.9844,1.9903,1.9931,1.9942,1.9963,2.0024,2.0035,1.9992,2.0082,2.0094,2.0138,2.0144,2.0146,2.015,2.0252,2.0253,2.0253,2.0217,0,0,0,0,0,0,1.9736,1.9752,1.9763,1.9827,1.9846,1.9912,1.9932,1.9944,1.9971,1.9974,2.0037,2.0047,2.0083,2.0131,2.0142,2.015,2.0153,2.0252,2.0252,2.0253,2.0217,2.0216,2.0214,0,0,0,0,0,1.973,1.9747,1.9763,1.9777,1.9861,1.9912,1.9923,1.9964,1.9971,1.9982,2.0022,2.0045,2.0142,2.0135,2.0148,2.0157,2.0252,2.0252,2.0253,2.0218,2.0216,2.0214,0,0,0,0,0,0,1.9681,1.9756,1.9775,1.9813,1.9856,1.9921,1.9936,1.996,2.0001,2.0003,2.0053,2.0066,2.0105,2.0136,2.0127,2.019,2.0199,2.0202,2.0168,2.0167,2.0165,2.0157,2.0157,0,0,0,0,0,1.9675,1.971,1.9774,1.9802,1.9823,1.9876,1.9899,1.9928,1.9974,1.9992,2.0035,2.0078,2.0119,2.0145,2.0185,2.0222,2.0238,2.0236,2.0234,2.0233,2.0235,2.026,2.026,2.0255,2.0255,2.0255,0,0,1.9662,1.9708,1.9727,1.9794,1.983,1.9866,1.989,1.9927,1.9955,1.9997,2.0041,2.0074,2.0127,2.0168,2.0188,2.0194,2.024,2.0233,2.0232,2.0235,2.026,2.0261,2.0261,2.0256,2.0256,2.0255,0,0,1.9658,1.9695,1.9724,1.9761,1.9816,1.9852,1.9859,1.9921,1.9945,1.999,2.0024,2.0058,2.0126,2.0163,2.0191,2.0204,2.0228,2.0216,2.0207,2.0231,2.0232,2.0232,2.0239,2.024,2.0218,2.0218,2.0218,0,1.9635,1.9691,1.9736,1.9771,1.9801,1.9843,1.9874,1.9907,1.9972,1.9992,1.9998,2.0087,2.0125,2.0177,2.0181,2.0201,2.0212,2.0209,2.0228,2.0229,2.023,2.0237,2.0239,2.0216,2.0217,2.0217,2.0217,0,1.9661,1.9699,1.9716,1.978,1.9811,1.9844,1.9895,1.9921,1.9948,1.9984,2.0031,2.0078,2.013,2.0145,2.017,2.0201,2.0204,2.0218,2.0229,2.0228,2.0236,2.0239,2.0214,2.0215,2.0215,2.0215,0,0,1.9627,1.9718,1.9723,1.9754,1.982,1.9851,1.9886,1.9939,1.9961,2.0006,2.0038,2.0097,2.0112,2.0143,2.0174,2.0194,2.0205,2.0207,2.0209,2.0206,2.0245,2.0234,2.0236,2.0221,2.0222,2.0222,2.0241,0,1.9633,1.9699,1.9742,1.9791,1.9829,1.9871,1.9903,1.9947,1.9982,2.0019,2.0058,2.0099,2.0115,2.0135,2.0157,2.0199,2.0213,2.0198,2.0253,2.0254,2.0239,2.024,2.0228,2.0242,2.0244,2.0244,2.0245,0,1.9648,1.9693,1.9746,1.9811,1.9829,1.9856,1.9909,1.9944,1.9996,2.002,2.0057,2.0089,2.013,2.0137,2.0196,2.0184,2.021,2.0234,2.0236,2.0243,2.0249,2.0248,2.0248,2.025,2.0249,2.0249,2.0249,0,1.962,1.9694,1.9736,1.9761,1.9837,1.9856,1.9889,1.9941,1.9971,2.0017,2.0037,2.0087,2.0115,2.0154,2.0199,2.02,2.0254,2.0264,2.0276,2.0275,2.0285,2.0284,2.029,2.03,2.03,2.03,2.03,0,1.9622,1.9653,1.9725,1.9751,1.9788,1.9838,1.9874,1.991,1.9957,1.9992,2.0031,2.0063,2.0121,2.016,2.0196,2.024,2.0252,2.0274,2.0283,2.027,2.0268,2.0288,2.0288,2.0301,2.03,2.03,2.03,0,1.9596,1.9645,1.9695,1.9764,1.9782,1.9807,1.9866,1.9894,1.9932,1.9976,1.9989,2.0049,2.0098,2.0147,2.0212,2.0237,2.028,2.0292,2.0263,2.0268,2.0278,2.0277,2.0298,2.0304,2.0308,2.0308,2.0308,0,1.9595,1.962,1.9693,1.972,1.9752,1.9793,1.9825,1.9876,1.9907,1.9971,1.9991,2.0043,2.0087,2.0164,2.0213,2.0264,2.0279,2.0283,2.0286,2.0274,2.028,2.0279,2.0283,2.0281,2.028,2.028,2.028,0,1.9587,1.9611,1.9655,1.9708,1.9745,1.9788,1.9834,1.9853,1.9914,1.9947,1.9998,2.0033,2.0101,2.0153,2.021,2.0245,2.0273,2.0279,2.0284,2.0272,2.0255,2.0266,2.0259,2.0278,2.0278,2.0278,2.0278,2.0278,1.9575,1.9601,1.9657,1.9705,1.9745,1.9787,1.9818,1.9861,1.9904,1.9964,1.9992,2.0044,2.0099,2.0179,2.0214,2.0256,2.0263,2.0271,2.0273,2.0274,2.0272,2.0248,2.0266,2.0266,2.0266,2.0267,2.0267,0,1.9571,1.961,1.9654,1.9717,1.9756,1.978,1.9832,1.9863,1.9908,1.9957,2.0001,2.0061,2.0113,2.0167,2.0222,2.0246,2.026,2.0258,2.0257,2.0265,2.0262,2.0252,2.0246,2.0246,2.0246,2.0246,2.0246,2.0246,1.9573,1.9619,1.965,1.9717,1.9756,1.9808,1.9836,1.9876,1.9916,1.9981,2.0025,2.0061,2.0113,2.0172,2.0221,2.0236,2.0255,2.025,2.0269,2.0264,2.0265,2.0267,2.0258,2.0253,2.0253,2.0269,2.0269,2.027]}]]